Time,TemperatureF,DewpointF,PressureIn,WindDirection,WindDirectionDegrees,WindSpeedMPH,WindSpeedGustMPH,Humidity,HourlyPrecipIn,Conditions,Clouds,dailyrainin,SoftwareType,DateUTC
2013-03-27 00:00:00,35.6,30.0,30.17,West,276,4.0,4.0,80,0.00,,,0.00,Wunderground v.1.15,2013-03-27 04:00:00,
2013-03-27 00:05:00,35.6,30.0,30.17,SW,226,3.0,4.0,80,0.00,,,0.00,Wunderground v.1.15,2013-03-27 04:05:00,
2013-03-27 00:10:00,35.5,30.2,30.17,South,186,2.0,2.0,81,0.00,,,0.00,Wunderground v.1.15,2013-03-27 04:10:00,
2013-03-27 00:15:00,35.5,30.2,30.17,WNW,297,2.0,4.0,81,0.00,,,0.00,Wunderground v.1.15,2013-03-27 04:15:00,
2013-03-27 00:25:00,35.5,30.2,30.17,West,267,3.0,3.0,81,0.00,,,0.00,Wunderground v.1.15,2013-03-27 04:25:00,
2013-03-27 00:30:00,35.4,30.1,30.17,WSW,251,3.0,5.0,81,0.00,,,0.00,Wunderground v.1.15,2013-03-27 04:30:00,
2013-03-27 00:40:00,35.3,30.4,30.17,WSW,253,3.0,6.0,82,0.00,,,0.00,Wunderground v.1.15,2013-03-27 04:40:00,
2013-03-27 00:50:00,35.2,30.3,30.17,West,271,4.0,4.0,82,0.00,,,0.00,Wunderground v.1.15,2013-03-27 04:50:00,
2013-03-27 00:55:00,35.2,30.3,30.17,WNW,293,3.0,4.0,82,0.00,,,0.00,Wunderground v.1.15,2013-03-27 04:55:00,
2013-03-27 01:00:00,35.2,30.3,30.17,WNW,286,3.0,3.0,82,0.00,,,0.00,Wunderground v.1.15,2013-03-27 05:00:00,
2013-03-27 01:10:00,35.1,30.5,30.18,WNW,286,3.0,5.0,83,0.00,,,0.00,Wunderground v.1.15,2013-03-27 05:10:00,
2013-03-27 01:20:00,35.0,30.7,30.17,WNW,298,4.0,4.0,84,0.00,,,0.00,Wunderground v.1.15,2013-03-27 05:20:00,
2013-03-27 01:25:00,34.9,30.6,30.18,WNW,297,3.0,4.0,84,0.00,,,0.00,Wunderground v.1.15,2013-03-27 05:25:00,
2013-03-27 01:35:00,34.8,30.5,30.17,West,279,3.0,3.0,84,0.00,,,0.00,Wunderground v.1.15,2013-03-27 05:35:00,
2013-03-27 01:40:00,34.7,30.7,30.18,West,275,3.0,4.0,85,0.00,,,0.00,Wunderground v.1.15,2013-03-27 05:40:00,
2013-03-27 01:50:00,34.7,30.4,30.18,WNW,290,2.0,3.0,84,0.00,,,0.00,Wunderground v.1.15,2013-03-27 05:50:00,
2013-03-27 01:55:00,34.7,30.4,30.18,WSW,257,2.0,3.0,84,0.00,,,0.00,Wunderground v.1.15,2013-03-27 05:55:00,
2013-03-27 02:00:00,34.7,30.4,30.18,WNW,301,2.0,2.0,84,0.00,,,0.00,Wunderground v.1.15,2013-03-27 06:00:00,
2013-03-27 02:10:00,34.6,30.3,30.18,West,260,3.0,4.0,84,0.00,,,0.00,Wunderground v.1.15,2013-03-27 06:10:00,
2013-03-27 02:20:00,34.5,30.2,30.18,WNW,285,2.0,2.0,84,0.00,,,0.00,Wunderground v.1.15,2013-03-27 06:20:00,
2013-03-27 02:25:00,34.5,30.2,30.18,WNW,294,3.0,3.0,84,0.00,,,0.00,Wunderground v.1.15,2013-03-27 06:25:00,
2013-03-27 02:35:00,34.4,30.1,30.18,West,271,2.0,3.0,84,0.00,,,0.00,Wunderground v.1.15,2013-03-27 06:35:00,
2013-03-27 02:45:00,34.5,30.2,30.18,West,259,3.0,4.0,84,0.00,,,0.00,Wunderground v.1.15,2013-03-27 06:45:00,
2013-03-27 02:50:00,34.4,30.1,30.18,WNW,296,3.0,3.0,84,0.00,,,0.00,Wunderground v.1.15,2013-03-27 06:50:00,
2013-03-27 03:00:00,34.3,30.0,30.17,WSW,251,3.0,4.0,84,0.00,,,0.00,Wunderground v.1.15,2013-03-27 07:00:00,
2013-03-27 03:05:00,34.3,30.0,30.18,WNW,287,3.0,4.0,84,0.00,,,0.00,Wunderground v.1.15,2013-03-27 07:05:00,
2013-03-27 03:15:00,34.2,29.9,30.17,WSW,254,4.0,4.0,84,0.00,,,0.00,Wunderground v.1.15,2013-03-27 07:15:00,
2013-03-27 03:20:00,34.2,29.9,30.17,West,271,4.0,4.0,84,0.00,,,0.00,Wunderground v.1.15,2013-03-27 07:20:00,
2013-03-27 03:30:00,34.2,29.6,30.18,West,277,3.0,3.0,83,0.00,,,0.00,Wunderground v.1.15,2013-03-27 07:30:00,
2013-03-27 03:35:00,34.2,29.6,30.17,West,265,3.0,3.0,83,0.00,,,0.00,Wunderground v.1.15,2013-03-27 07:35:00,
2013-03-27 03:45:00,34.1,29.5,30.18,NW,307,3.0,4.0,83,0.00,,,0.00,Wunderground v.1.15,2013-03-27 07:45:00,
2013-03-27 03:50:00,34.0,29.1,30.18,WNW,283,3.0,3.0,82,0.00,,,0.00,Wunderground v.1.15,2013-03-27 07:50:00,
2013-03-27 04:00:00,33.9,29.0,30.18,WNW,293,2.0,5.0,82,0.00,,,0.00,Wunderground v.1.15,2013-03-27 08:00:00,
2013-03-27 04:10:00,33.8,28.9,30.18,West,268,3.0,3.0,82,0.00,,,0.00,Wunderground v.1.15,2013-03-27 08:10:00,
2013-03-27 04:20:00,33.5,28.3,30.18,WNW,302,3.0,5.0,81,0.00,,,0.00,Wunderground v.1.15,2013-03-27 08:20:00,
2013-03-27 04:25:00,33.4,28.5,30.18,WNW,286,3.0,5.0,82,0.00,,,0.00,Wunderground v.1.15,2013-03-27 08:25:00,
2013-03-27 04:35:00,33.0,28.1,30.18,WNW,293,3.0,3.0,82,0.00,,,0.00,Wunderground v.1.15,2013-03-27 08:35:00,
2013-03-27 04:40:00,32.8,27.9,30.18,NW,307,3.0,3.0,82,0.00,,,0.00,Wunderground v.1.15,2013-03-27 08:40:00,
2013-03-27 04:50:00,32.5,27.9,30.18,WNW,290,2.0,3.0,83,0.00,,,0.00,Wunderground v.1.15,2013-03-27 08:50:00,
2013-03-27 04:55:00,32.4,27.8,30.19,WNW,288,2.0,3.0,83,0.00,,,0.00,Wunderground v.1.15,2013-03-27 08:55:00,
2013-03-27 05:00:00,32.2,27.6,30.19,WNW,301,2.0,2.0,83,0.00,,,0.00,Wunderground v.1.15,2013-03-27 09:00:00,
2013-03-27 05:10:00,31.9,27.3,30.19,WNW,296,2.0,4.0,83,0.00,,,0.00,Wunderground v.1.15,2013-03-27 09:10:00,
2013-03-27 05:20:00,31.7,27.4,30.19,WNW,285,2.0,2.0,84,0.00,,,0.00,Wunderground v.1.15,2013-03-27 09:20:00,
2013-03-27 05:25:00,31.6,27.3,30.19,West,281,2.0,2.0,84,0.00,,,0.00,Wunderground v.1.15,2013-03-27 09:25:00,
2013-03-27 05:35:00,31.5,27.2,30.19,WNW,287,3.0,3.0,84,0.00,,,0.00,Wunderground v.1.15,2013-03-27 09:35:00,
2013-03-27 05:40:00,31.4,27.1,30.19,West,268,3.0,3.0,84,0.00,,,0.00,Wunderground v.1.15,2013-03-27 09:40:00,
2013-03-27 05:50:00,31.2,27.2,30.19,West,276,3.0,3.0,85,0.00,,,0.00,Wunderground v.1.15,2013-03-27 09:50:00,
2013-03-27 05:55:00,31.1,27.1,30.19,WSW,255,3.0,3.0,85,0.00,,,0.00,Wunderground v.1.15,2013-03-27 09:55:00,
2013-03-27 06:00:00,31.1,27.1,30.20,WNW,287,3.0,3.0,85,0.00,,,0.00,Wunderground v.1.15,2013-03-27 10:00:00,
2013-03-27 06:10:00,31.0,27.0,30.20,West,274,3.0,4.0,85,0.00,,,0.00,Wunderground v.1.15,2013-03-27 10:10:00,
2013-03-27 06:20:00,31.0,26.7,30.20,West,269,3.0,3.0,84,0.00,,,0.00,Wunderground v.1.15,2013-03-27 10:20:00,
2013-03-27 06:30:00,31.0,26.4,30.20,West,274,2.0,2.0,83,0.00,,,0.00,Wunderground v.1.15,2013-03-27 10:30:00,
2013-03-27 06:35:00,31.0,26.4,30.20,West,274,3.0,3.0,83,0.00,,,0.00,Wunderground v.1.15,2013-03-27 10:35:00,
2013-03-27 06:45:00,30.9,26.6,30.20,WNW,300,2.0,4.0,84,0.00,,,0.00,Wunderground v.1.15,2013-03-27 10:45:00,
2013-03-27 06:50:00,30.9,26.6,30.20,WSW,258,3.0,3.0,84,0.00,,,0.00,Wunderground v.1.15,2013-03-27 10:50:00,
2013-03-27 07:00:00,30.9,26.6,30.21,WSW,255,4.0,4.0,84,0.00,,,0.00,Wunderground v.1.15,2013-03-27 11:00:00,
2013-03-27 07:10:00,30.6,26.6,30.20,WSW,252,2.0,3.0,85,0.00,,,0.00,Wunderground v.1.15,2013-03-27 11:10:00,
2013-03-27 07:20:00,30.5,26.5,30.21,WSW,241,3.0,3.0,85,0.00,,,0.00,Wunderground v.1.15,2013-03-27 11:20:00,
2013-03-27 07:30:00,30.4,26.4,30.21,WSW,245,3.0,3.0,85,0.00,,,0.00,Wunderground v.1.15,2013-03-27 11:30:00,
2013-03-27 07:40:00,30.3,26.3,30.21,West,266,3.0,3.0,85,0.00,,,0.00,Wunderground v.1.15,2013-03-27 11:40:00,
2013-03-27 07:45:00,30.4,26.4,30.22,West,270,3.0,3.0,85,0.00,,,0.00,Wunderground v.1.15,2013-03-27 11:45:00,
2013-03-27 07:55:00,30.4,26.4,30.22,SW,219,2.0,5.0,85,0.00,,,0.00,Wunderground v.1.15,2013-03-27 11:55:00,
2013-03-27 08:00:00,30.7,26.7,30.22,WSW,240,3.0,3.0,85,0.00,,,0.00,Wunderground v.1.15,2013-03-27 12:00:00,
2013-03-27 08:10:00,31.2,26.9,30.22,WSW,248,3.0,4.0,84,0.00,,,0.00,Wunderground v.1.15,2013-03-27 12:10:00,
2013-03-27 08:15:00,31.5,26.9,30.22,West,274,3.0,5.0,83,0.00,,,0.00,Wunderground v.1.15,2013-03-27 12:15:00,
2013-03-27 08:25:00,32.1,27.2,30.22,WNW,290,3.0,5.0,82,0.00,,,0.00,Wunderground v.1.15,2013-03-27 12:25:00,
2013-03-27 08:30:00,32.4,27.2,30.22,West,269,3.0,4.0,81,0.00,,,0.00,Wunderground v.1.15,2013-03-27 12:30:00,
2013-03-27 08:40:00,32.9,27.4,30.22,West,261,3.0,3.0,80,0.00,,,0.00,Wunderground v.1.15,2013-03-27 12:40:00,
2013-03-27 08:45:00,33.2,27.4,30.23,West,269,4.0,4.0,79,0.00,,,0.00,Wunderground v.1.15,2013-03-27 12:45:00,
2013-03-27 08:55:00,33.6,27.5,30.22,NW,309,4.0,5.0,78,0.00,,,0.00,Wunderground v.1.15,2013-03-27 12:55:00,
2013-03-27 09:00:00,33.7,27.3,30.22,NW,312,5.0,5.0,77,0.00,,,0.00,Wunderground v.1.15,2013-03-27 13:00:00,
2013-03-27 09:10:00,34.3,27.5,30.22,WNW,295,5.0,6.0,76,0.00,,,0.00,Wunderground v.1.15,2013-03-27 13:10:00,
2013-03-27 09:20:00,34.7,27.6,30.22,WNW,295,5.0,7.0,75,0.00,,,0.00,Wunderground v.1.15,2013-03-27 13:20:00,
2013-03-27 09:25:00,34.9,27.8,30.22,WNW,288,5.0,7.0,75,0.00,,,0.00,Wunderground v.1.15,2013-03-27 13:25:00,
2013-03-27 09:35:00,35.5,27.4,30.22,WNW,282,5.0,5.0,72,0.00,,,0.00,Wunderground v.1.15,2013-03-27 13:35:00,
2013-03-27 09:40:00,35.9,27.4,30.22,NW,307,5.0,5.0,71,0.00,,,0.00,Wunderground v.1.15,2013-03-27 13:40:00,
2013-03-27 09:50:00,36.4,27.2,30.22,WNW,294,6.0,7.0,69,0.00,,,0.00,Wunderground v.1.15,2013-03-27 13:50:00,
2013-03-27 10:00:00,37.0,27.1,30.22,WNW,287,6.0,6.0,67,0.00,,,0.00,Wunderground v.1.15,2013-03-27 14:00:00,
2013-03-27 10:10:00,37.5,27.2,30.22,NW,304,7.0,7.0,66,0.00,,,0.00,Wunderground v.1.15,2013-03-27 14:10:00,
2013-03-27 10:20:00,38.2,27.1,30.22,West,279,6.0,6.0,64,0.00,,,0.00,Wunderground v.1.15,2013-03-27 14:20:00,
2013-03-27 10:30:00,38.4,26.9,30.22,WNW,288,7.0,7.0,63,0.00,,,0.00,Wunderground v.1.15,2013-03-27 14:30:00,
2013-03-27 10:35:00,38.5,26.2,30.22,NW,309,7.0,7.0,61,0.00,,,0.00,Wunderground v.1.15,2013-03-27 14:35:00,
2013-03-27 10:45:00,39.4,27.8,30.22,NW,307,6.0,7.0,63,0.00,,,0.00,Wunderground v.1.15,2013-03-27 14:45:00,
2013-03-27 10:55:00,39.6,26.4,30.22,WNW,292,7.0,7.0,59,0.00,,,0.00,Wunderground v.1.15,2013-03-27 14:55:00,
2013-03-27 11:00:00,39.7,26.1,30.23,WNW,289,7.0,11.0,58,0.00,,,0.00,Wunderground v.1.15,2013-03-27 15:00:00,
2013-03-27 11:10:00,39.8,25.8,30.22,West,261,8.0,8.0,57,0.00,,,0.00,Wunderground v.1.15,2013-03-27 15:10:00,
2013-03-27 11:15:00,40.1,26.1,30.22,NW,304,8.0,8.0,57,0.00,,,0.00,Wunderground v.1.15,2013-03-27 15:15:00,
2013-03-27 11:25:00,41.1,26.1,30.22,WNW,302,7.0,8.0,55,0.00,,,0.00,Wunderground v.1.15,2013-03-27 15:25:00,
2013-03-27 11:30:00,41.8,26.4,30.23,WSW,252,6.0,6.0,54,0.00,,,0.00,Wunderground v.1.15,2013-03-27 15:30:00,
2013-03-27 11:40:00,41.6,25.7,30.23,WNW,300,8.0,8.0,53,0.00,,,0.00,Wunderground v.1.15,2013-03-27 15:40:00,
2013-03-27 11:45:00,41.9,25.5,30.23,West,264,7.0,8.0,52,0.00,,,0.00,Wunderground v.1.15,2013-03-27 15:45:00,
2013-03-27 11:55:00,42.2,25.3,30.23,SW,229,7.0,9.0,51,0.00,,,0.00,Wunderground v.1.15,2013-03-27 15:55:00,
2013-03-27 12:00:00,42.5,25.1,30.23,WNW,298,7.0,9.0,50,0.00,,,0.00,Wunderground v.1.15,2013-03-27 16:00:00,
2013-03-27 12:10:00,43.4,26.9,30.23,SW,236,6.0,8.0,52,0.00,,,0.00,Wunderground v.1.15,2013-03-27 16:10:00,
2013-03-27 12:15:00,43.3,25.4,30.23,NW,309,6.0,8.0,49,0.00,,,0.00,Wunderground v.1.15,2013-03-27 16:15:00,
2013-03-27 12:25:00,43.3,26.8,30.23,NW,310,8.0,11.0,52,0.00,,,0.00,Wunderground v.1.15,2013-03-27 16:25:00,
2013-03-27 12:35:00,43.7,25.8,30.22,NW,305,7.0,9.0,49,0.00,,,0.00,Wunderground v.1.15,2013-03-27 16:35:00,
2013-03-27 12:40:00,43.9,26.0,30.22,WNW,282,7.0,7.0,49,0.00,,,0.00,Wunderground v.1.15,2013-03-27 16:40:00,
2013-03-27 12:50:00,44.1,26.1,30.22,WSW,239,7.0,7.0,49,0.00,,,0.00,Wunderground v.1.15,2013-03-27 16:50:00,
2013-03-27 12:55:00,44.4,26.4,30.22,WNW,285,7.0,7.0,49,0.00,,,0.00,Wunderground v.1.15,2013-03-27 16:55:00,
2013-03-27 13:00:00,44.9,26.4,30.23,West,278,7.0,7.0,48,0.00,,,0.00,Wunderground v.1.15,2013-03-27 17:00:00,
2013-03-27 13:10:00,44.4,26.4,30.22,West,277,6.0,6.0,49,0.00,,,0.00,Wunderground v.1.15,2013-03-27 17:10:00,
2013-03-27 13:20:00,44.4,26.4,30.22,WNW,288,6.0,6.0,49,0.00,,,0.00,Wunderground v.1.15,2013-03-27 17:20:00,
2013-03-27 13:25:00,44.3,25.8,30.22,NNW,336,6.0,6.0,48,0.00,,,0.00,Wunderground v.1.15,2013-03-27 17:25:00,
2013-03-27 13:35:00,45.4,26.8,30.22,WNW,285,5.0,8.0,48,0.00,,,0.00,Wunderground v.1.15,2013-03-27 17:35:00,
2013-03-27 13:40:00,45.2,25.6,30.21,NW,311,5.0,12.0,46,0.00,,,0.00,Wunderground v.1.15,2013-03-27 17:40:00,
2013-03-27 13:50:00,45.8,26.2,30.21,West,260,6.0,6.0,46,0.00,,,0.00,Wunderground v.1.15,2013-03-27 17:50:00,
2013-03-27 13:55:00,46.3,27.7,30.21,West,267,6.0,6.0,48,0.00,,,0.00,Wunderground v.1.15,2013-03-27 17:55:00,
2013-03-27 14:00:00,45.9,25.7,30.21,WNW,298,6.0,6.0,45,0.00,,,0.00,Wunderground v.1.15,2013-03-27 18:00:00,
2013-03-27 14:10:00,45.9,26.8,30.21,NW,305,6.0,6.0,47,0.00,,,0.00,Wunderground v.1.15,2013-03-27 18:10:00,
2013-03-27 14:20:00,45.8,25.6,30.21,West,275,6.0,7.0,45,0.00,,,0.00,Wunderground v.1.15,2013-03-27 18:20:00,
2013-03-27 14:30:00,45.0,25.4,30.20,WNW,282,6.0,6.0,46,0.00,,,0.00,Wunderground v.1.15,2013-03-27 18:30:00,
2013-03-27 14:35:00,45.2,26.1,30.20,WSW,239,6.0,6.0,47,0.00,,,0.00,Wunderground v.1.15,2013-03-27 18:35:00,
2013-03-27 14:45:00,46.6,25.8,30.20,WNW,285,6.0,6.0,44,0.00,,,0.00,Wunderground v.1.15,2013-03-27 18:45:00,
2013-03-27 14:50:00,46.3,25.6,30.20,NW,313,6.0,8.0,44,0.00,,,0.00,Wunderground v.1.15,2013-03-27 18:50:00,
2013-03-27 15:00:00,45.7,26.6,30.20,WNW,290,5.0,9.0,47,0.00,,,0.00,Wunderground v.1.15,2013-03-27 19:00:00,
2013-03-27 15:10:00,45.5,24.8,30.20,West,264,6.0,6.0,44,0.00,,,0.00,Wunderground v.1.15,2013-03-27 19:10:00,
2013-03-27 15:20:00,45.8,26.2,30.20,WNW,294,6.0,6.0,46,0.00,,,0.00,Wunderground v.1.15,2013-03-27 19:20:00,
2013-03-27 15:30:00,45.7,26.1,30.20,WSW,245,5.0,10.0,46,0.00,,,0.00,Wunderground v.1.15,2013-03-27 19:30:00,
2013-03-27 15:35:00,45.8,26.7,30.20,WSW,256,5.0,10.0,47,0.00,,,0.00,Wunderground v.1.15,2013-03-27 19:35:00,
2013-03-27 15:45:00,45.8,25.1,30.20,West,261,6.0,8.0,44,0.00,,,0.00,Wunderground v.1.15,2013-03-27 19:45:00,
2013-03-27 15:55:00,45.5,25.9,30.20,WNW,302,5.0,9.0,46,0.00,,,0.00,Wunderground v.1.15,2013-03-27 19:55:00,
2013-03-27 16:00:00,45.5,25.4,30.20,WSW,241,5.0,9.0,45,0.00,,,0.00,Wunderground v.1.15,2013-03-27 20:00:00,
2013-03-27 16:10:00,45.4,25.3,30.20,West,268,5.0,5.0,45,0.00,,,0.00,Wunderground v.1.15,2013-03-27 20:10:00,
2013-03-27 16:15:00,45.3,25.7,30.20,WNW,285,5.0,5.0,46,0.00,,,0.00,Wunderground v.1.15,2013-03-27 20:15:00,
2013-03-27 16:25:00,45.3,25.2,30.19,WSW,245,6.0,8.0,45,0.00,,,0.00,Wunderground v.1.15,2013-03-27 20:25:00,
2013-03-27 16:35:00,45.4,26.3,30.19,WSW,244,5.0,6.0,47,0.00,,,0.00,Wunderground v.1.15,2013-03-27 20:35:00,
2013-03-27 16:40:00,45.5,25.4,30.19,WNW,285,6.0,6.0,45,0.00,,,0.00,Wunderground v.1.15,2013-03-27 20:40:00,
2013-03-27 16:50:00,45.5,25.4,30.20,WSW,247,6.0,11.0,45,0.00,,,0.00,Wunderground v.1.15,2013-03-27 20:50:00,
2013-03-27 16:55:00,45.3,25.7,30.20,West,278,6.0,11.0,46,0.00,,,0.00,Wunderground v.1.15,2013-03-27 20:55:00,
2013-03-27 17:00:00,45.2,25.6,30.20,WNW,284,6.0,7.0,46,0.00,,,0.00,Wunderground v.1.15,2013-03-27 21:00:00,
2013-03-27 17:10:00,45.4,25.3,30.20,West,267,6.0,6.0,45,0.00,,,0.00,Wunderground v.1.15,2013-03-27 21:10:00,
2013-03-27 17:20:00,45.3,26.2,30.20,WNW,296,5.0,5.0,47,0.00,,,0.00,Wunderground v.1.15,2013-03-27 21:20:00,
2013-03-27 17:25:00,45.1,26.1,30.20,West,277,5.0,6.0,47,0.00,,,0.00,Wunderground v.1.15,2013-03-27 21:25:00,
2013-03-27 17:35:00,44.8,25.8,30.20,West,267,6.0,6.0,47,0.00,,,0.00,Wunderground v.1.15,2013-03-27 21:35:00,
2013-03-27 17:45:00,45.0,26.0,30.20,WSW,247,5.0,6.0,47,0.00,,,0.00,Wunderground v.1.15,2013-03-27 21:45:00,
2013-03-27 17:50:00,44.9,25.3,30.20,WNW,303,5.0,9.0,46,0.00,,,0.00,Wunderground v.1.15,2013-03-27 21:50:00,
2013-03-27 18:00:00,44.8,25.8,30.20,West,262,4.0,6.0,47,0.00,,,0.00,Wunderground v.1.15,2013-03-27 22:00:00,
2013-03-27 18:05:00,44.7,25.7,30.20,WSW,243,5.0,7.0,47,0.00,,,0.00,Wunderground v.1.15,2013-03-27 22:05:00,
2013-03-27 18:15:00,44.5,25.5,30.20,WSW,255,6.0,9.0,47,0.00,,,0.00,Wunderground v.1.15,2013-03-27 22:15:00,
2013-03-27 18:25:00,44.4,25.9,30.20,WSW,255,4.0,9.0,48,0.00,,,0.00,Wunderground v.1.15,2013-03-27 22:25:00,
2013-03-27 18:35:00,44.2,25.2,30.20,West,266,5.0,6.0,47,0.00,,,0.00,Wunderground v.1.15,2013-03-27 22:35:00,
2013-03-27 18:40:00,44.2,25.7,30.20,West,263,5.0,5.0,48,0.00,,,0.00,Wunderground v.1.15,2013-03-27 22:40:00,
2013-03-27 18:50:00,44.2,25.2,30.20,WSW,252,5.0,5.0,47,0.00,,,0.00,Wunderground v.1.15,2013-03-27 22:50:00,
2013-03-27 18:55:00,44.2,25.7,30.21,SW,236,4.0,5.0,48,0.00,,,0.00,Wunderground v.1.15,2013-03-27 22:55:00,
2013-03-27 19:00:00,44.1,25.6,30.21,WNW,288,4.0,4.0,48,0.00,,,0.00,Wunderground v.1.15,2013-03-27 23:00:00,
2013-03-27 19:10:00,43.9,26.0,30.21,WNW,300,4.0,10.0,49,0.00,,,0.00,Wunderground v.1.15,2013-03-27 23:10:00,
2013-03-27 19:20:00,43.9,26.0,30.21,WNW,301,5.0,5.0,49,0.00,,,0.00,Wunderground v.1.15,2013-03-27 23:20:00,
2013-03-27 19:30:00,43.7,25.8,30.21,NW,306,4.0,4.0,49,0.00,,,0.00,Wunderground v.1.15,2013-03-27 23:30:00,
2013-03-27 19:35:00,43.6,26.2,30.21,WNW,288,4.0,4.0,50,0.00,,,0.00,Wunderground v.1.15,2013-03-27 23:35:00,
2013-03-27 19:45:00,43.4,26.0,30.21,WNW,295,4.0,5.0,50,0.00,,,0.00,Wunderground v.1.15,2013-03-27 23:45:00,
2013-03-27 19:50:00,43.2,26.3,30.21,WNW,288,5.0,5.0,51,0.00,,,0.00,Wunderground v.1.15,2013-03-27 23:50:00,
2013-03-27 20:00:00,43.0,26.6,30.22,WNW,288,4.0,4.0,52,0.00,,,0.00,Wunderground v.1.15,2013-03-28 00:00:00,
2013-03-27 20:10:00,42.6,26.6,30.22,WNW,287,4.0,4.0,53,0.00,,,0.00,Wunderground v.1.15,2013-03-28 00:10:00,
2013-03-27 20:20:00,42.5,26.6,30.22,NW,309,4.0,4.0,53,0.00,,,0.00,Wunderground v.1.15,2013-03-28 00:20:00,
2013-03-27 20:25:00,42.3,26.8,30.22,WSW,258,4.0,5.0,54,0.00,,,0.00,Wunderground v.1.15,2013-03-28 00:25:00,
2013-03-27 20:35:00,41.9,26.4,30.22,WSW,249,4.0,4.0,54,0.00,,,0.00,Wunderground v.1.15,2013-03-28 00:35:00,
2013-03-27 20:40:00,41.8,26.4,30.22,West,259,4.0,4.0,54,0.00,,,0.00,Wunderground v.1.15,2013-03-28 00:40:00,
2013-03-27 20:50:00,41.5,26.5,30.22,West,269,3.0,3.0,55,0.00,,,0.00,Wunderground v.1.15,2013-03-28 00:50:00,
2013-03-27 20:55:00,41.3,26.8,30.23,NW,315,4.0,5.0,56,0.00,,,0.00,Wunderground v.1.15,2013-03-28 00:55:00,
2013-03-27 21:00:00,41.1,26.6,30.23,WNW,288,4.0,4.0,56,0.00,,,0.00,Wunderground v.1.15,2013-03-28 01:00:00,
2013-03-27 21:10:00,40.8,26.7,30.23,WSW,250,4.0,4.0,57,0.00,,,0.00,Wunderground v.1.15,2013-03-28 01:10:00,
2013-03-27 21:20:00,40.4,26.8,30.24,West,266,4.0,4.0,58,0.00,,,0.00,Wunderground v.1.15,2013-03-28 01:20:00,
2013-03-27 21:25:00,40.1,26.9,30.24,West,269,3.0,4.0,59,0.00,,,0.00,Wunderground v.1.15,2013-03-28 01:25:00,
2013-03-27 21:35:00,39.8,26.6,30.24,West,259,3.0,4.0,59,0.00,,,0.00,Wunderground v.1.15,2013-03-28 01:35:00,
2013-03-27 21:45:00,39.3,26.6,30.24,West,276,2.0,3.0,60,0.00,,,0.00,Wunderground v.1.15,2013-03-28 01:45:00,
2013-03-27 21:55:00,39.2,26.5,30.25,WNW,287,4.0,4.0,60,0.00,,,0.00,Wunderground v.1.15,2013-03-28 01:55:00,
2013-03-27 22:00:00,39.0,26.7,30.25,WNW,283,3.0,3.0,61,0.00,,,0.00,Wunderground v.1.15,2013-03-28 02:00:00,
2013-03-27 22:10:00,38.8,26.5,30.25,WSW,258,3.0,4.0,61,0.00,,,0.00,Wunderground v.1.15,2013-03-28 02:10:00,
2013-03-27 22:15:00,38.8,26.1,30.25,West,267,4.0,4.0,60,0.00,,,0.00,Wunderground v.1.15,2013-03-28 02:15:00,
2013-03-27 22:25:00,38.6,26.3,30.25,West,281,3.0,4.0,61,0.00,,,0.00,Wunderground v.1.15,2013-03-28 02:25:00,
2013-03-27 22:30:00,38.5,26.2,30.25,WSW,240,4.0,8.0,61,0.00,,,0.00,Wunderground v.1.15,2013-03-28 02:30:00,
2013-03-27 22:40:00,38.2,25.9,30.25,WNW,296,4.0,4.0,61,0.00,,,0.00,Wunderground v.1.15,2013-03-28 02:40:00,
2013-03-27 22:45:00,38.1,25.8,30.25,WNW,283,4.0,5.0,61,0.00,,,0.00,Wunderground v.1.15,2013-03-28 02:45:00,
2013-03-27 22:55:00,38.1,25.4,30.25,WNW,290,4.0,7.0,60,0.00,,,0.00,Wunderground v.1.15,2013-03-28 02:55:00,
2013-03-27 23:00:00,38.0,25.3,30.25,WSW,254,4.0,4.0,60,0.00,,,0.00,Wunderground v.1.15,2013-03-28 03:00:00,
2013-03-27 23:10:00,37.8,25.1,30.25,NW,307,4.0,4.0,60,0.00,,,0.00,Wunderground v.1.15,2013-03-28 03:10:00,
2013-03-27 23:20:00,37.7,25.1,30.26,WSW,243,5.0,5.0,60,0.00,,,0.00,Wunderground v.1.15,2013-03-28 03:20:00,
2013-03-27 23:25:00,37.6,25.0,30.26,WNW,296,5.0,5.0,60,0.00,,,0.00,Wunderground v.1.15,2013-03-28 03:25:00,
2013-03-27 23:35:00,37.3,24.7,30.26,West,269,4.0,4.0,60,0.00,,,0.00,Wunderground v.1.15,2013-03-28 03:35:00,
2013-03-27 23:40:00,37.2,24.6,30.26,WSW,242,5.0,5.0,60,0.00,,,0.00,Wunderground v.1.15,2013-03-28 03:40:00,
2013-03-27 23:50:00,36.9,24.7,30.26,West,281,4.0,6.0,61,0.00,,,0.00,Wunderground v.1.15,2013-03-28 03:50:00,
2013-03-27 23:55:00,36.7,24.5,30.26,West,271,4.0,6.0,61,0.00,,,0.00,Wunderground v.1.15,2013-03-28 03:55:00,